Location: Walsall
(52.5862°N, 1.9829°W)
Time: 01:55:37
(UTC+01:00)

X-37B - Pass Details

Date: 01 July 2021
Orbit: 383 x 392 km, 45.0° (Epoch: 01 July)

Event Time Altitude Azimuth Distance (km) Brightness Sun altitude
Rises 23:20:07 0° 258° (WSW) 2,259 4.7 -10.5°
Reaches altitude 10° 23:23:57 10° 211° (SSW) 1,400 3.1 -10.8°
Maximum altitude 23:24:17 10° 205° (SSW) 1,392 3.0 -10.8°
Enters shadow 23:24:36 10° 199° (SSW) 1,398 3.0 -10.8°
